Tracking 33723 objects as of 10-Apr-2026
HD Live streaming from Space Station
objects crossing your sky now

COSMOS 1275 DEB

Track COSMOS 1275 DEB now!
10-day predictions


NORAD ID: 42145
Int'l Code: 1981-053RH
Perigee: 517.4 km
Apogee: 535.7 km
Inclination: 83.3 °
Period: 95.0 minutes
Semi major axis: 6897 km
RCS: Unknown
Launch date: June 4, 1981
Source: Commonwealth of Independent States (former USSR) (CIS)
Launch site: PLESETSK MISSILE AND SPACE COMPLEX (PKMTR)

Note: This is SATELLITE DEBRIS
Your satellite tracking list
Your tracking list is empty




NASA's NSSDC Master Catalog

Two Line Element Set (TLE):
1 42145U 81053RH  26097.44546497  .00120304  00000-0  62432-2 0  9999
2 42145  83.3263 170.6893 0013306 205.9956 154.0612 15.15515395653379
Source of the keplerian elements: AFSPC